Les Menuires, France 16 day weather forecast

Slopes altitude range 1260 m - 3230m

Number of lifts: 174 Pistes: 600km

In some cases the lift and piste totals shown are for the ski domain (e.g. Three Valleys) rather than individual resort (e.g. Courchevel)

Overview

The 16 day weather forecast is fully updated 4 times every day.

    • Sun 17 FEB 2019
    • Sun 17
    • -2C 8C
    • Mon 18 FEB 2019
    • Mon 18
    • -2C 7C
    • Tue 19 FEB 2019
    • Tue 19
    • -3C 5C
    • Wed 20 FEB 2019
    • Wed 20
    • -2C 6C
    • Thu 21 FEB 2019
    • Thu 21
    • -1C 6C
    • Fri 22 FEB 2019
    • Fri 22
    • -1C 7C
    • Sat 23 FEB 2019
    • Sat 23
    • 0C 7C
    • Sun 24 FEB 2019
    • Sun 24
    • 0C 9C
    • Mon 25 FEB 2019
    • Mon 25
    • -3C 4C
    • Tue 26 FEB 2019
    • Tue 26
    • -2C 6C
    • Wed 27 FEB 2019
    • Wed 27
    • -1C 5C
    • Thu 28 FEB 2019
    • Thu 28
    • -2C 5C
    • Fri 01 MAR 2019
    • Fri 01
    • -1C 5C
    • Sat 02 MAR 2019
    • Sat 02
    • -2C 4C
    • Sun 03 MAR 2019
    • Sun 03
    • -1C 4C
    • Mon 04 MAR 2019
    • Mon 04
    • -2C 4C

Date:

Time Type 0°C level Temp Chill Snow Cloud Speed Gust Dir Press
12:00 2878m 8°C 8_1 0cm 0% 1mph 2mph 1026mB
15:00 2827m 8°C 8_1 0cm 0% 1mph 1mph 1024mB
18:00 2694m 8°C 8_6 0cm 0% 6mph 6mph 1026mB
21:00 2030m -1°C -1_6 0cm 0% 6mph 6mph 1027mB
0:00 1272m -2°C -2_6 0cm 0% 6mph 6mph 1027mB
3:00 1270m -2°C -2_6 0cm 0% 6mph 6mph 1026mB
6:00 1269m -2°C -2_6 0cm 0% 6mph 6mph 1026mB
9:00 2612m -2°C -2_4 0cm 0% 4mph 5mph 1025mB
12:00 2557m 7°C 7_1 0cm 0% 1mph 2mph 1023mB
15:00 2443m 7°C 7_2 0cm 34% 2mph 2mph 1021mB
18:00 1906m 7°C 7_4 0cm 38% 4mph 4mph 1024mB
21:00 1333m -1°C -1_5 0cm 41% 5mph 5mph 1025mB
0:00 1227m -2°C -2_5 0cm 38% 5mph 5mph 1025mB
3:00 1159m -2°C -2_4 0cm 36% 4mph 5mph 1025mB
6:00 1104m -3°C -3_4 0cm 33% 4mph 5mph 1025mB
9:00 1984m -3°C -3_2 0cm 37% 2mph 3mph 1024mB
12:00 1930m 5°C 5_3 0cm 29% 3mph 3mph 1023mB
15:00 2006m 5°C 5_2 0cm 8% 2mph 3mph 1021mB
18:00 1616m 5°C 5_4 0cm 7% 4mph 4mph 1024mB
21:00 1204m -2°C -2_5 0cm 0% 5mph 5mph 1025mB
0:00 1167m -2°C -2_5 0cm 0% 5mph 5mph 1025mB
3:00 1170m -2°C -2_4 0cm 13% 4mph 5mph 1025mB
6:00 1164m -2°C -2_4 0cm 18% 4mph 5mph 1026mB
9:00 2038m -2°C -2_2 0cm 32% 2mph 2mph 1026mB
12:00 2133m 6°C 6_3 0cm 32% 3mph 3mph 1025mB
15:00 2068m 6°C 6_3 0cm 5% 3mph 4mph 1024mB
18:00 1684m 6°C 6_3 0cm 6% 3mph 4mph 1027mB
21:00 1681m -1°C -1_4 0cm 20% 4mph 5mph 1028mB
0:00 1684m -1°C -1_4 0cm 21% 4mph 5mph 1029mB
3:00 1341m -1°C -1_4 0cm 23% 4mph 5mph 1029mB
6:00 1336m -1°C -1_4 0cm 22% 4mph 4mph 1029mB
9:00 2248m -1°C -1_1 0cm 38% 1mph 2mph 1029mB
12:00 2336m 6°C 6_3 0cm 34% 3mph 2mph 1028mB
15:00 2268m 6°C 6_3 0cm 36% 3mph 3mph 1027mB
18:00 1866m 6°C 6_3 0cm 41% 3mph 3mph 1029mB
21:00 1915m 0°C 0_4 0cm 33% 4mph 4mph 1030mB
0:00 1843m 0°C 0_4 0cm 18% 4mph 4mph 1030mB
3:00 1881m 0°C 0_3 0cm 0% 3mph 4mph 1030mB
6:00 1828m -1°C -1_4 0cm 2% 4mph 4mph 1030mB
9:00 2676m -1°C -1_2 0cm 0% 2mph 2mph 1029mB
12:00 2835m 7°C 7_3 0cm 0% 3mph 4mph 1026mB
15:00 2887m 7°C 7_3 0cm 0% 3mph 4mph 1026mB
18:00 2979m 7°C 7_3 0cm 0% 3mph 4mph 1027mB
21:00 2897m 1°C 1_5 0cm 0% 5mph 6mph 1029mB
0:00 2779m 1°C 1_6 0cm 0% 6mph 6mph 1030mB
3:00 2528m 1°C 1_5 0cm 0% 5mph 6mph 1031mB
6:00 2282m 0°C 0_4 0cm 0% 4mph 4mph 1032mB
9:00 2297m 0°C 0_1 0cm 0% 1mph 2mph 1033mB
12:00 2302m 7°C 7_3 0cm 0% 3mph 3mph 1032mB
15:00 2259m 7°C 7_4 0cm 0% 4mph 3mph 1031mB
18:00 2324m 7°C 7_2 0cm 0% 2mph 2mph 1034mB
21:00 2518m 2°C 2_5 0cm 0% 5mph 6mph 1035mB
0:00 2417m 1°C 1_5 0cm 0% 5mph 6mph 1036mB
3:00 2249m 1°C 1_5 0cm 0% 5mph 6mph 1037mB
6:00 1974m 0°C 0_5 0cm 0% 5mph 6mph 1038mB
9:00 2878m 0°C 0_3 0cm 0% 3mph 4mph 1038mB
12:00 2966m 9°C 9_2 0cm 0% 2mph 2mph 1036mB
15:00 3033m 10°C 10_3 0cm 0% 3mph 3mph 1035mB
18:00 3212m 10°C 10_2 0cm 0% 2mph 2mph 1036mB
21:00 1980m -2°C -2_2 0cm 0% 2mph 2mph 1037mB
0:00 2002m -2°C -2_3 0cm 0% 3mph 3mph 1036mB
3:00 1916m -3°C -3_3 0cm 0% 3mph 3mph 1036mB
6:00 1830m -3°C -3_2 0cm 0% 2mph 2mph 1036mB
9:00 3624m -3°C -3_1 0cm 0% 1mph 2mph 1035mB
12:00 3624m 4°C 4_3 0cm 0% 3mph 3mph 1033mB
15:00 3601m 5°C 5_4 0cm 0% 4mph 4mph 1031mB
18:00 2041m 5°C 5_2 0cm 0% 2mph 2mph 1032mB
21:00 2036m -2°C -2_3 0cm 0% 3mph 3mph 1032mB
0:00 2066m -2°C -2_4 0cm 0% 4mph 4mph 1031mB
3:00 2048m -2°C -2_4 0cm 0% 4mph 5mph 1029mB
6:00 1994m -2°C -2_5 0cm 0% 5mph 5mph 1029mB
9:00 3233m -2°C -2_5 0cm 0% 5mph 5mph 1028mB
12:00 3240m 6°C 6_1 0cm 0% 1mph 2mph 1027mB
15:00 3131m 6°C 6_2 0cm 0% 2mph 3mph 1026mB
18:00 2125m 6°C 6_3 0cm 0% 3mph 3mph 1028mB
21:00 2095m -1°C -1_4 0cm 0% 4mph 4mph 1029mB
0:00 2112m -1°C -1_4 0cm 0% 4mph 5mph 1030mB
3:00 2059m -1°C -1_5 0cm 0% 5mph 6mph 1030mB
6:00 1962m -2°C -2_6 0cm 0% 6mph 7mph 1032mB
Afternoon 0mm 0 2380m 5°C 5_1 0cm 0% 1mph 2mph 1032mB
Morning 0mm 0 1586m -2°C -2_3 0cm 0% 3mph 4mph 1033mB
Afternoon 0mm 0 2635m 5°C 5_4 0cm 11% 4mph 5mph 1031mB
Morning 0mm 0 1798m -1°C -1_4 0cm 0% 4mph 5mph 1030mB
Afternoon 0mm 0 2317m 5°C 5_2 0cm 0% 2mph 3mph 1029mB
Morning 0mm 0 1551m -2°C -2_3 0cm 0% 3mph 3mph 1033mB
Afternoon 0mm 0 2124m 4°C 4_4 0cm 0% 4mph 5mph 1034mB
Morning 0mm 0 1722m -1°C -1_6 0cm 31% 6mph 6mph 1036mB
Afternoon 0.0104167mm 0 2291m 4°C 4_1 0cm 58% 1mph 2mph 1034mB
Morning 0mm 0 1621m -2°C -2_4 0cm 35% 4mph 5mph 1033mB
Afternoon 0mm 0 1684m 4°C 4_4 0cm 2% 4mph 5mph 1028mB
Morning 0mm 0 1315m -4°C -4_4 0cm 6% 4mph 6mph 1027mB

16 day outlook at a glance

Forecast issued: 2/17/2019 1:33:12 PM

Chat

Your comments and questions. In a resort? Let us know what it's like!


Characters left 250

For terms and conditions see Readers Comments on the Cookie and privacy policy page.